Overview Statistics Trail Chart Weather Telemetry Raw packets
 

This is the latest recevied weather packets stored in our database for station/object CT4TX-11. If no packets are shown the sender has not sent any weather packets the latest 10 day(s).

<< 1 2 3 4 5 6 >>
Time Temp. Humidity Pressure Rain* Wind** Luminosity Snow
1788579386 31.67° C 44% 1005.2 hPa - - - -
1788578486 31.67° C 44% 1005.2 hPa - - - -
1788577586 31.67° C 43% 1005.3 hPa - - - -
1788576685 31.67° C 43% 1005.4 hPa - - - -
1788575785 31.67° C 42% 1005.3 hPa - - - -
1788574885 31.67° C 42% 1005.1 hPa - - - -
1788573983 31.67° C 42% 1005.3 hPa - - - -
1788573083 31.67° C 42% 1005.3 hPa - - - -
1788572183 31.67° C 42% 1005.5 hPa - - - -
1788571282 31.67° C 42% 1005.4 hPa - - - -
1788570382 31.67° C 42% 1005.5 hPa - - - -
1788569482 31.67° C 42% 1005.6 hPa - - - -
1788568581 31.67° C 42% 1005.7 hPa - - - -
1788567681 31.67° C 42% 1005.9 hPa - - - -
1788566781 31.67° C 41% 1006.1 hPa - - - -
1788565881 31.67° C 42% 1006 hPa - - - -
1788564981 31.67° C 43% 1006 hPa - - - -
1788564080 31.11° C 44% 1006 hPa - - - -
1788563180 31.11° C 44% 1006.1 hPa - - - -
1788562280 31.11° C 44% 1006.2 hPa - - - -
1788561380 31.67° C 43% 1006.2 hPa - - - -
1788560479 31.67° C 44% 1006.2 hPa - - - -
1788559579 31.67° C 39% 1006.1 hPa - - - -
1788558685 32.22° C 35% 1006.4 hPa - - - -
1788557785 32.22° C 39% 1006.5 hPa - - - -

* Rain since midnight (hover to see other rain measurements)
** Current wind speed in m/s (hover to see current wind gust speed)